Location: Mansfield Dam
(30.3944°N, 97.9097°W)
Time: 16:02:47
(UTC-05:00)

Daily predictions for brighter satellites

Satellite Brightness Start Highest point End
(mag) Time Altitude Azimuth Time Altitude Azimuth Time Altitude Azimuth
METEOR-M 4.3 20:19:16 10° SSE 20:24:29 58° ENE 20:29:44 10° N
ATLAS 2AS CENTAUR R/B 3.3 20:17:32 10° NNW 20:25:28 71° WSW 20:32:42 10° SSE
Meteor 1-13 Rocket 4.3 20:22:08 10° N 20:27:54 62° E 20:33:31 10° SSE
CZ-4B DEB 3.8 20:27:43 10° SE 20:30:34 28° ENE 20:33:25 10° NNE
Resurs 1-3 3.8 20:27:38 10° SSE 20:31:53 52° ENE 20:36:09 10° N
Cosmos 1812 4.2 20:29:27 10° NNW 20:33:07 42° W 20:36:46 10° SSW
Okean 1 4.1 20:29:24 10° NNW 20:33:23 58° W 20:37:18 10° S
Helios 1B rocket 3.3 20:30:30 10° N 20:34:32 55° WNW 20:38:32 10° SSW
Cosmos 1633 2.5 20:34:25 10° S 20:38:04 70° E 20:41:43 10° N
Cosmos 1809 Rocket 4.5 20:32:24 10° S 20:38:28 65° E 20:44:33 10° NNE
Helios 1A 3.0 20:34:23 10° SSE 20:38:32 89° ENE 20:42:42 10° NNW
Meteor 1-19 Rocket 4.3 20:33:53 10° N 20:39:27 57° E 20:44:54 10° SSE
Cosmos 1455 Rocket 4.0 20:35:55 10° SE 20:39:28 25° E 20:43:01 10° NE
Tiangong 1 3.6 20:37:35 10° WNW 20:39:54 19° NNW 20:42:14 10° NNE
Cosmos 44 4.2 20:36:37 10° NW 20:41:20 48° WSW 20:45:44 10° S
H-2A R/B 3.6 20:39:11 10° W 20:42:59 61° S 21:00:01 13° ESE
Cosmos 2227 Rocket 4.1 20:41:08 10° NNE 20:43:45 13° ENE 20:46:21 10° E
Resurs 01 Rocket 1.8 20:39:43 10° S 20:44:08 79° WSW 20:48:34 10° NNW
Cosmos 968 Rocket 3.7 20:40:30 10° N 20:45:29 50° ENE 20:50:26 10° SSE
Cosmos 1025 Rocket 3.2 20:43:27 10° N 20:47:43 53° E 20:51:56 10° SSE
GOES 2 Rocket 3.2 20:44:44 10° W 20:48:51 59° S 20:52:32 15° ESE
NOSS 2-1 (D) 3.9 20:46:24 10° SW 20:50:12 61° WNW 20:54:14 10° NNE
FENGYUN 3A 3.9 20:45:13 10° SSE 20:50:20 48° ENE 20:55:28 10° N
Meteor 1-11 Rocket 4.3 20:45:05 10° SSW 20:50:40 62° W 20:56:10 10° N
NOSS 2-1 (C) 3.9 20:47:25 10° SW 20:51:15 61° WNW 20:55:17 10° NNE
Cosmos 1934 Rocket 4.1 20:45:47 10° SSE 20:51:39 53° E 20:57:37 10° NNE
USA 186 2.8 20:49:38 14° SE 20:51:42 26° ENE 20:54:21 10° NNE
OAO 2 Rocket 3.3 20:48:19 10° WSW 20:53:17 67° SSE 20:58:17 11° ENE
Okean 2 4.2 20:51:36 10° NNE 20:55:19 31° E 20:58:08 15° SE
OTV 4 2.8 20:54:31 10° NW 20:56:42 18° N 20:58:52 10° NE
Cosmos 2297 Rocket 4.1 20:57:23 10° NNE 20:59:48 13° ENE 21:01:34 11° ENE
Cosmos 1975 4.2 20:59:17 18° ESE 21:00:06 19° E 21:03:03 10° NE
Palapa 6 Rocket 4.5 20:59:57 10° WSW 21:04:35 29° SSW 21:07:13 17° SE
EO 1 Delta rocket 3.9 21:07:25 10° NNE 21:12:08 80° E 21:17:37 10° S
Cosmos 1544 Rocket 3.6 21:08:27 10° S 21:12:48 81° W 21:17:12 10° N
MDS-1 4.5 21:16:58 10° WSW 21:18:59 45° SSE 21:19:32 39° SE
Cosmos 1777 Rocket 4.0 21:14:10 10° N 21:19:22 61° ENE 21:22:40 22° SSE
Cosmos 2219 3.5 21:14:52 10° NNW 21:20:27 68° WSW 21:26:01 10° S
Cosmos 2208 Rocket 4.0 21:15:18 10° SSW 21:20:34 89° WNW 21:25:57 10° NNE
Cosmos 1939 Rocket 3.9 21:29:22 29° ENE 21:29:22 29° ENE 21:32:47 10° NNE
Meteor 2-4 Rocket 4.2 21:24:27 10° NNW 21:30:15 66° W 21:36:07 10° S
Milstar 3 Cent rocket 4.5 21:06:41 10° W 21:30:19 82° S 21:38:08 23° E
ALOS 2.9 21:25:54 10° S 21:30:28 56° W 21:35:04 10° NNW
Cosmos 2278 3.8 21:26:48 10° SSW 21:32:27 79° WNW 21:38:10 10° NNE
Cosmos 1605 Rocket 4.0 21:26:18 10° S 21:32:40 84° E 21:39:00 10° N
H-2A R/B 3.4 21:30:19 14° S 21:33:30 54° W 21:37:19 10° NNW
Cosmos 1697 Rocket 3.3 21:35:31 34° E 21:35:31 34° E 21:40:17 10° NE
YAOGAN 11 4.1 21:40:10 47° SE 21:41:15 64° ENE 21:45:42 10° N
SPOT 5 4.2 21:42:57 25° ENE 21:42:57 25° ENE 21:46:34 10° NNE
Cosmos 2369 4.0 21:39:22 10° SSW 21:45:00 69° WNW 21:50:40 10° NNE
Envisat 3.2 21:48:14 47° E 21:48:42 49° ENE 21:53:34 10° N
NOSS 3-4 (A) 3.9 21:43:54 10° NNW 21:50:59 63° ENE 21:53:38 41° ESE
NOSS 3-4 (C) 3.9 21:44:01 10° NNW 21:51:05 63° ENE 21:53:42 41° ESE
Cosmos 1980 Rocket 4.3 22:00:44 13° NE 22:00:44 13° NE 22:01:20 10° NE
Hubble Space Telescope 1.3 21:53:30 10° W 21:57:00 50° SW 21:57:00 50° SW
CZ-4 DEB 4.4 22:03:00 33° NW 22:03:00 33° NW 22:05:00 10° NNW
Cosmos 1346 Rocket 3.8 21:58:50 10° NNW 22:02:35 43° W 22:03:29 37° SW
H-2A R/B 3.2 22:09:23 31° NNE 22:09:23 31° NNE 22:11:45 10° N
deb Chang Zheng 4 3.8 22:09:14 10° N 22:13:17 68° NNW 22:13:17 68° NNW
Cosmos 1626 Rocket 4.1 22:14:28 10° NNW 22:18:20 56° WNW 22:18:20 56° WNW
Cosmos 1459 Rocket 3.7 22:20:57 79° SE 22:21:11 81° E 22:27:15 10° N
Iridium 4 Rocket 3.9 22:16:23 10° N 22:21:20 53° W 22:21:59 49° WSW
Cosmos 1602 Rocket 4.5 22:22:01 10° NNW 22:25:54 47° WNW 22:25:54 47° WNW
ERS-1 Rocket 3.8 22:27:20 42° WSW 22:28:03 45° W 22:32:50 10° NNW
Cosmos 2227 Rocket 2.3 22:22:39 10° NNW 22:28:17 69° WSW 22:28:22 69° WSW
Cosmos 1898 Rocket 4.4 22:27:09 10° N 22:30:41 40° NNE 22:30:41 40° NNE
OAO 2 Rocket 4.2 22:33:12 10° W 22:37:16 48° NW 22:37:16 48° NW
Cosmos 1802 Rocket 4.0 22:38:54 83° NW 22:38:54 83° NW 22:45:11 10° N
Cosmos 2082 4.1 22:34:37 10° NNW 22:39:48 56° W 22:39:48 56° W
Cosmos 2297 Rocket 2.6 22:38:42 10° NNW 22:43:24 59° NW 22:43:24 59° NW
Centaur AC-125 4.2 22:40:44 10° W 22:51:56 48° WSW 22:51:56 48° WSW
Lacrosse 5 rocket 4.4 22:53:02 10° NNW 22:53:07 11° NNW 22:53:07 11° NNW
USA 215 4.2 23:13:51 39° NNE 23:13:51 39° NNE 23:18:43 10° NNW
H-2A R/B 4.4 23:21:52 16° N 23:21:52 16° N 23:22:52 10° N
Lacrosse 5 4.3 23:20:53 10° NNW 23:22:12 17° NNW 23:22:12 17° NNW
Cosmos 1980 Rocket 4.3 23:42:25 22° NNW 23:42:25 22° NNW 23:45:10 10° N
